Home   Weather   Brighton   Past weeks

Flag for United Kingdom Past Weather in Brighton, England, United Kingdom — Yesterday and Last 2 Weeks

Now
41 °F

Clear.


Feels Like: 34 °F
Forecast: 37 / 49 °F
Wind: 13 mph from Northwest

Location: London / Gatwick Airport

Current Time: Apr 25, 2017 at 2:08:21 am

Latest Report: Apr 25, 2017 at 1:20 am


Visibility: 10 mi

Pressure: 29.92 "Hg

Humidity: 45%

Dew Point: 21 °F

Location of BrightonLocation

Past Weather in Brighton — Graph

°F

Brighton Temperature Yesterday

Maximum temperature yesterday: 57 °F (at 10:50 am)
Minimum temperature yesterday: 45 °F (at 12:20 am)
Average temperature yesterday: 51 °F

High & Low Weather Summary for the Past Weeks

 TemperatureHumidityPressure
High61 °F (Apr 12, 3:20 pm)100% (Apr 18, 2:50 am)30.63 "Hg (Apr 18, 2:50 am)
Low34 °F (Apr 19, 4:20 am)31% (Apr 18, 4:20 pm)29.89 "Hg (Apr 24, 4:50 pm)
Average50 °F66%30.26 "Hg
* Reported Apr 10 12:20 am — Apr 25 12:50 am, Brighton, Weather by CustomWeather, © 2017

Note: Actual official high and low records may vary slightly from our data, if they occured in-between our weather recording intervals... More about our weather records

Advertising

Brighton Weather History for the Previous 24 Hours

Scroll right to see more
 ConditionsComfort  
Time TempWeatherWind HumidityBarometerVisibility
12:50 am
Tue, Apr 25
41 °FClear.15 mph45%29.92 "Hg10 mi
12:20 am43 °FClear.14 mph42%29.92 "Hg10 mi
11:50 pm
Mon, Apr 24
45 °FClear.15 mph37%29.92 "Hg10 mi
11:20 pm46 °FClear.16 mph37%29.89 "Hg10 mi
10:50 pm46 °FPassing clouds.12 mph46%29.89 "HgN/A
10:20 pm48 °FClear.12 mph46%29.92 "Hg10 mi
9:50 pm48 °FPassing clouds.13 mph54%29.92 "HgN/A
9:20 pm48 °FPassing clouds.9 mph71%29.89 "HgN/A
8:50 pm48 °FPassing clouds.8 mph76%29.89 "HgN/A
8:20 pm48 °FPassing clouds.12 mph76%29.89 "HgN/A
7:50 pm50 °FScattered clouds.12 mph71%29.89 "HgN/A
7:20 pm52 °FScattered showers. Broken clouds.13 mph72%29.89 "HgN/A
6:50 pm52 °FScattered clouds.14 mph72%29.89 "HgN/A
6:20 pm54 °FScattered clouds.12 mph67%29.89 "HgN/A
5:50 pm54 °FScattered clouds.9 mph67%29.89 "HgN/A
5:20 pm54 °FBroken clouds.10 mph63%29.89 "HgN/A
4:50 pm54 °FLight rain. Broken clouds.13 mph63%29.89 "HgN/A
4:20 pm55 °FPartly sunny.10 mph63%29.92 "HgN/A
3:50 pm55 °FBroken clouds.8 mph63%29.92 "HgN/A
3:20 pm55 °FBroken clouds.13 mph63%29.92 "HgN/A
2:50 pm57 °FPartly sunny.7 mph59%29.95 "HgN/A
2:20 pm55 °FBroken clouds.10 mph59%29.95 "HgN/A
1:50 pm57 °FPassing clouds.10 mph55%29.95 "HgN/A
1:20 pm57 °FPartly sunny.9 mph59%29.98 "HgN/A
12:50 pm57 °FPartly sunny.9 mph55%29.98 "HgN/A
12:20 pm57 °FScattered clouds.10 mph59%30.01 "HgN/A
11:50 am55 °FPassing clouds.10 mph63%30.01 "HgN/A
11:20 am55 °FScattered clouds.8 mph59%30.01 "HgN/A
10:50 am57 °FPassing clouds.5 mph59%30.01 "HgN/A
10:20 am55 °FPassing clouds.6 mph67%30.04 "HgN/A
9:50 am54 °FPassing clouds.5 mph67%30.04 "HgN/A
9:20 am52 °FSunny.3 mph77%30.04 "Hg10 mi
8:50 am52 °FSunny.3 mph72%30.04 "Hg10 mi
8:20 am48 °FSunny.5 mph87%30.07 "Hg10 mi
7:50 am48 °FSunny.5 mph87%30.07 "Hg10 mi
7:20 am48 °FScattered clouds.3 mph87%30.07 "Hg6 mi
6:50 am48 °FPartly sunny.5 mph87%30.07 "HgN/A
6:20 am48 °FPartly sunny.5 mph87%30.07 "Hg3 mi
5:50 am46 °FPartly sunny.3 mph93%30.07 "Hg2 mi
5:20 am48 °FHaze.3 mph87%30.07 "Hg2 mi
4:50 am48 °FHaze.5 mph94%30.09 "Hg2 mi
4:20 am48 °FHaze.3 mph94%30.09 "Hg1 mi
3:50 am46 °FPassing clouds.2 mph100%30.09 "Hg1 mi
3:20 am46 °FHaze.3 mph100%30.12 "Hg1 mi
2:50 am48 °FHaze.3 mph94%30.12 "Hg1 mi
2:20 am46 °FHaze.3 mph93%30.12 "Hg2 mi
Weather by CustomWeather, © 2017

See weather overviewHow to use our weather pages